Вернуться в каталог

FENGYUN 1C DEB

АктивенSSO
NORAD 31160·DEBRIS·🇨🇳 China

Запущен May 10, 1999 с Taiyuan Satellite Launch Center

Loading…

Ближайшие Пролёты (ближайшие 24 часа)

TLE

СвежийSource: Space-Track

Эпоха: Sep 14, 2026, 09:39 UTC

1 31160U 99025BHN 26257.40255797 -.00000104  00000-0 -40080-4 0  9990
2 31160  99.0485 315.9523 0056821 216.0582 143.6744 13.99679874734558

Отслеживайте FENGYUN 1C DEB в реальном времени с AllMySat

Download on the App Store